Location: Riedlingen
(48.1569°N, 9.4757°E)
Time: 08:42:55
(UTC+02:00)

ISS - Visible Passes

Search period start: 24 September 2017 00:00
Search period end: 04 October 2017 00:00
Orbit: 401 x 407 km, 51.6° (Epoch: 24 September)

Date Brightness Start Highest point End Pass type
(mag) Time Alt. Az. Time Alt. Az. Time Alt. Az.
25 Sep -1.4 21:18:45 10° SW 21:19:31 15° SSW 21:19:31 15° SSW visible
26 Sep -2.6 20:26:56 10° SSW 20:29:39 24° SE 20:29:53 24° SE visible
27 Sep -3.1 21:10:16 10° WSW 21:12:44 47° SW 21:12:44 47° SW visible
28 Sep -3.5 20:18:04 10° SW 20:21:14 46° SSE 20:22:45 25° E visible
28 Sep -1.0 21:54:29 10° W 21:55:24 17° W 21:55:24 17° W visible
29 Sep -3.7 21:02:01 10° WSW 21:05:17 68° NNW 21:05:17 68° NNW visible
30 Sep -3.9 20:09:36 10° WSW 20:12:52 85° SSE 20:15:03 20° ENE visible
30 Sep -1.2 21:46:23 10° WNW 21:47:42 21° WNW 21:47:42 21° WNW visible
01 Oct -3.2 20:53:51 10° W 20:57:04 49° N 20:57:23 47° NNE visible
02 Oct -3.5 20:01:19 10° W 20:04:34 62° NNW 20:07:01 16° ENE visible
02 Oct -1.3 21:38:11 10° WNW 21:39:39 23° WNW 21:39:39 23° WNW visible
03 Oct -3.1 20:45:39 10° WNW 20:48:49 43° N 20:49:14 40° NNE visible
